Date String (YYYY-MM-DD hh:mm:ss) UTC,Instrument flags,absolute air pressure of the measurement (hPa),sample flow rate (lpm),inlet stack bypass flow (lpm),air temperature of the measurement (°C),ambient temperature measured by the external sensor (°C),aerosol sample conditioner tube jacket temperature (°C),OPC LED temperature (°C),internal box temperature (°C),relative humidity of the measurement (%),span deviation,mass concentration of particles derived from Lorenz-Mie calculation of OPC scattering (μg/m³),mass concentration of particles derived from Lorenz-Mie calculation of OPC scattering (μg/m³),mass concentration of particles derived from Lorenz-Mie calculation of OPC scattering (μg/m³)
DateTimeUTC,F1_M11,P_M11,Q1_M11,Q2_M11,T1_M11,T2_M11,T3_M11,T4_M11,T5_M11,U1_M11,ZSPAN_M11,X2_M11,X0_M11,X1_M11
2023-12-04 06:00:00,SystemResetWarning,0825.6,5.00,000.00,018.8,017.9,000.0,027.2,020.0,13.3,0000.0,0003.17,0006.12,0002.51
2023-12-04 06:01:00,SystemResetWarning,0825.8,5.01,000.00,018.8,017.9,000.0,027.2,020.0,13.3,0000.0,0003.16,0005.98,0002.52
2023-12-04 06:02:00,SystemResetWarning,0825.8,5.00,000.00,018.8,017.9,000.0,027.2,020.0,13.5,0000.0,0003.14,0005.85,0002.53
2023-12-04 06:03:00,SystemResetWarning,0825.8,5.00,000.00,018.8,017.9,000.0,027.2,020.0,13.7,0000.0,0003.16,0005.10,0002.55
2023-12-04 06:04:00,SystemResetWarning,0825.8,5.00,000.00,018.8,017.9,000.0,027.2,020.0,13.7,0000.0,0003.17,0005.01,0002.57
2023-12-04 06:05:00,SystemResetWarning,0825.8,5.00,000.00,018.8,017.9,000.0,027.2,020.0,13.7,0000.0,0003.20,0005.22,0002.59
2023-12-04 06:06:00,SystemResetWarning,0825.8,5.00,000.00,018.8,017.9,000.0,027.2,020.0,13.7,0000.0,0003.22,0005.86,0002.60
2023-12-04 06:07:00,SystemResetWarning,0825.8,5.01,000.00,018.8,017.9,000.0,027.2,020.0,13.6,0000.0,0003.19,0005.76,0002.60
2023-12-04 06:08:00,SystemResetWarning,0825.9,5.00,000.00,018.8,017.9,000.0,027.2,020.0,13.5,0000.0,0003.19,0005.74,0002.60
2023-12-04 06:09:00,SystemResetWarning,0825.9,5.00,000.00,018.8,017.9,000.0,027.2,020.0,13.7,0000.0,0003.19,0005.71,0002.60
2023-12-04 06:10:00,SystemResetWarning,0825.8,5.00,000.00,018.8,017.9,000.0,027.2,020.0,13.7,0000.0,0003.22,0006.23,0002.60
2023-12-04 06:11:00,SystemResetWarning,0825.8,5.00,000.00,018.8,017.9,000.0,027.2,020.0,13.5,0000.0,0003.24,0006.34,0002.59
2023-12-04 06:12:00,SystemResetWarning,0825.9,5.00,000.00,018.8,017.9,000.0,027.2,020.0,13.6,0000.0,0003.24,0006.63,0002.58
2023-12-04 06:13:00,SystemResetWarning,0825.9,5.00,000.00,018.8,017.9,000.0,027.2,020.0,13.7,0000.0,0003.27,0007.11,0002.59
2023-12-04 06:14:00,SystemResetWarning,0825.7,5.00,000.00,018.8,017.9,000.0,027.2,020.0,13.7,0000.0,0003.26,0007.24,0002.59
2023-12-04 06:15:00,SystemResetWarning,0825.6,4.99,000.00,018.8,017.9,000.0,027.2,020.0,13.6,0000.0,0003.30,0007.43,0002.60
2023-12-04 06:16:00,SystemResetWarning,0825.7,5.00,000.00,018.8,017.9,000.0,027.2,020.0,13.5,0000.0,0003.32,0007.43,0002.64
2023-12-04 06:17:00,SystemResetWarning,0825.8,5.01,000.00,018.8,017.9,000.0,027.2,020.0,13.5,0000.0,0003.33,0007.20,0002.66
2023-12-04 06:18:00,SystemResetWarning,0825.9,5.01,000.00,018.8,017.9,000.0,027.2,020.0,13.6,0000.0,0003.34,0006.89,0002.68
2023-12-04 06:19:00,SystemResetWarning,0825.9,5.00,000.00,018.8,017.9,000.0,027.2,020.0,13.6,0000.0,0003.36,0006.97,0002.71
2023-12-04 06:20:00,SystemResetWarning,0825.7,5.00,000.00,018.8,017.9,000.0,027.2,020.0,13.4,0000.0,0003.40,0007.24,0002.74
2023-12-04 06:21:00,SystemResetWarning,0825.6,4.99,000.00,018.8,017.9,000.0,027.2,020.0,13.4,0000.0,0003.41,0007.47,0002.75
2023-12-04 06:22:00,SystemResetWarning,0825.6,4.99,000.00,018.8,017.9,000.0,027.2,020.0,13.5,0000.0,0003.42,0008.09,0002.79
2023-12-04 06:23:00,SystemResetWarning,0825.7,5.01,000.00,018.8,017.9,000.0,027.2,020.0,13.5,0000.0,0003.43,0008.80,0002.82
2023-12-04 06:24:00,SystemResetWarning,0825.8,5.01,000.00,018.8,017.9,000.0,027.2,020.0,13.6,0000.0,0003.44,0008.58,0002.85
2023-12-04 06:25:00,SystemResetWarning,0825.7,5.01,000.00,018.8,017.9,000.0,027.2,020.0,13.5,0000.0,0003.42,0008.46,0002.88
2023-12-04 06:26:00,SystemResetWarning,0825.4,4.99,000.00,018.8,017.9,000.0,027.2,020.0,13.4,0000.0,0003.38,0008.28,0002.89
2023-12-04 06:27:00,SystemResetWarning,0825.4,4.99,000.00,018.8,017.9,000.0,027.2,020.0,13.3,0000.0,0003.36,0009.10,0002.88
2023-12-04 06:28:00,SystemResetWarning,0825.4,5.01,000.00,018.8,017.9,000.0,027.2,020.0,13.4,0000.0,0003.37,0009.10,0002.91
2023-12-04 06:29:00,SystemResetWarning,0825.5,5.00,000.00,018.8,017.9,000.0,027.2,020.0,13.4,0000.0,0003.38,0009.10,0002.91
2023-12-04 06:30:00,SystemResetWarning,0825.6,5.01,000.00,018.8,017.9,000.0,027.2,020.0,13.4,0000.0,0003.38,0009.22,0002.89
2023-12-04 06:31:00,SystemResetWarning,0825.6,5.00,000.00,018.8,017.9,000.0,027.2,020.0,13.4,0000.0,0003.37,0009.26,0002.88
2023-12-04 06:32:00,SystemResetWarning,0825.5,5.00,000.00,018.8,017.9,000.0,027.2,020.0,13.4,0000.0,0003.36,0009.07,0002.87
2023-12-04 06:33:00,SystemResetWarning,0825.3,5.00,000.00,018.8,017.9,000.0,027.2,020.0,13.3,0000.0,0003.32,0008.23,0002.85
2023-12-04 06:34:00,SystemResetWarning,0825.5,5.00,000.00,018.8,017.9,000.0,027.2,020.0,13.2,0000.0,0003.31,0007.38,0002.81
2023-12-04 06:35:00,SystemResetWarning,0825.7,5.00,000.00,018.8,017.9,000.0,027.2,020.0,13.3,0000.0,0003.26,0007.15,0002.74
2023-12-04 06:36:00,SystemResetWarning,0825.8,4.99,000.00,018.8,017.9,000.0,027.2,020.0,13.6,0000.0,0003.22,0007.01,0002.69
2023-12-04 06:37:00,SystemResetWarning,0825.7,5.01,000.00,018.8,017.8,000.0,027.2,020.0,13.5,0000.0,0003.21,0007.32,0002.64
2023-12-04 06:38:00,SystemResetWarning,0825.6,5.01,000.00,018.8,017.8,000.0,027.2,020.0,13.4,0000.0,0003.20,0007.20,0002.61
2023-12-04 06:39:00,SystemResetWarning,0825.5,5.00,000.00,018.8,017.8,000.0,027.2,020.0,13.3,0000.0,0003.18,0007.01,0002.56
2023-12-04 06:40:00,SystemResetWarning,0825.5,5.00,000.00,018.8,017.9,000.0,027.2,020.0,13.3,0000.0,0003.15,0006.95,0002.52
2023-12-04 06:41:00,SystemResetWarning,0825.5,5.00,000.00,018.8,017.9,000.0,027.2,020.0,13.5,0000.0,0003.13,0006.80,0002.50
2023-12-04 06:42:00,SystemResetWarning,0825.5,5.00,000.00,018.8,017.9,000.0,027.2,020.0,13.5,0000.0,0003.08,0006.59,0002.47
2023-12-04 06:43:00,SystemResetWarning,0825.4,4.99,000.00,018.8,017.9,000.0,027.2,020.0,13.5,0000.0,0003.02,0006.36,0002.43
2023-12-04 06:44:00,SystemResetWarning,0825.4,5.00,000.00,018.8,017.9,000.0,027.2,020.0,13.6,0000.0,0003.01,0006.87,0002.43
2023-12-04 06:45:00,SystemResetWarning,0825.5,5.00,000.00,018.8,017.9,000.0,027.2,020.0,13.5,0000.0,0003.00,0007.02,0002.43
2023-12-04 06:46:00,SystemResetWarning,0825.5,5.00,000.00,018.8,017.9,000.0,027.2,020.0,13.5,0000.0,0003.03,0007.58,0002.45
2023-12-04 06:47:00,SystemResetWarning,0825.4,5.00,000.00,018.8,017.9,000.0,027.2,020.0,13.6,0000.0,0003.04,0007.95,0002.45
2023-12-04 06:48:00,SystemResetWarning,0825.5,5.00,000.00,018.8,017.9,000.0,027.2,020.0,13.6,0000.0,0003.03,0008.27,0002.44
2023-12-04 06:49:00,SystemResetWarning,0825.6,5.00,000.00,018.8,017.9,000.0,027.2,020.0,13.5,0000.0,0003.02,0007.39,0002.43
2023-12-04 06:50:00,SystemResetWarning,0825.5,5.00,000.00,018.8,017.8,000.0,027.2,020.0,13.5,0000.0,0003.00,0007.34,0002.45
2023-12-04 06:51:00,SystemResetWarning,0825.5,5.00,000.00,018.8,017.8,000.0,027.2,020.0,13.4,0000.0,0002.96,0007.29,0002.44
2023-12-04 06:52:00,SystemResetWarning,0825.5,5.00,000.00,018.8,017.8,000.0,027.2,020.0,13.4,0000.0,0002.95,0007.18,0002.44
2023-12-04 06:53:00,SystemResetWarning,0825.5,5.01,000.00,018.8,017.8,000.0,027.2,020.0,13.4,0000.0,0003.00,0007.36,0002.46
2023-12-04 06:54:00,SystemResetWarning,0825.5,5.01,000.00,018.8,017.8,000.0,027.2,020.0,13.6,0000.0,0003.03,0007.90,0002.47
2023-12-04 06:55:00,SystemResetWarning,0825.4,5.00,000.00,018.7,017.8,000.0,027.2,020.0,13.5,0000.0,0003.03,0007.76,0002.46
2023-12-04 06:56:00,SystemResetWarning,0825.4,5.00,000.00,018.7,017.8,000.0,027.2,020.0,13.2,0000.0,0003.07,0007.68,0002.46
2023-12-04 06:57:00,SystemResetWarning,0825.3,5.01,000.00,018.7,017.8,000.0,027.2,020.0,13.2,0000.0,0003.06,0007.52,0002.46
2023-12-04 06:58:00,SystemResetWarning,0825.2,5.00,000.00,018.7,017.8,000.0,027.2,020.0,13.2,0000.0,0003.09,0007.20,0002.47
2023-12-04 06:59:00,SystemResetWarning,0825.2,5.00,000.00,018.8,017.8,000.0,027.2,020.0,13.0,0000.0,0003.12,0007.06,0002.48
